N3819L KMSP-KMSP

Flight info

Callsign N3819L
Flight time 0h 12m
Altitude VFR
Route
Aircraft COL3/L-DOV/C

Departure

Time 2026-05-06 04:48
Airport Minneapolis–Saint Paul International Airport / Wold–Chamberlain Field (KMSP)

Arrival

Time 2026-05-06 05:00
Airport Minneapolis–Saint Paul International Airport / Wold–Chamberlain Field (KMSP)
Time Latitude Longitude Altitude Speed Heading
2026-05-06 04:33 44.89122 -93.22123 837 ft 0 kts 30°
2026-05-06 04:38 44.89135 -93.22113 838 ft 6 kts 42°
2026-05-06 04:38 44.89146 -93.22097 836 ft 4 kts 51°
2026-05-06 04:38 44.89135 -93.22026 836 ft 12 kts 123°
2026-05-06 04:39 44.89128 -93.22009 836 ft 0 kts 119°
2026-05-06 04:39 44.89107 -93.21960 834 ft 15 kts 121°
2026-05-06 04:39 44.89033 -93.21789 832 ft 18 kts 126°
2026-05-06 04:39 44.88955 -93.21704 835 ft 14 kts 208°
2026-05-06 04:40 44.88892 -93.21790 831 ft 13 kts 221°
2026-05-06 04:40 44.88832 -93.21875 835 ft 15 kts 223°
2026-05-06 04:40 44.88747 -93.21993 834 ft 19 kts 226°
2026-05-06 04:40 44.88639 -93.22147 832 ft 19 kts 225°
2026-05-06 04:41 44.88539 -93.22292 830 ft 22 kts 226°
2026-05-06 04:41 44.88476 -93.22359 829 ft 8 kts 194°
2026-05-06 04:41 44.88431 -93.22312 830 ft 0 kts 125°
2026-05-06 04:42 44.88404 -93.22251 831 ft 11 kts 120°
2026-05-06 04:43 44.88361 -93.22150 833 ft 14 kts 121°
2026-05-06 04:43 44.88298 -93.22005 832 ft 20 kts 120°
2026-05-06 04:43 44.88219 -93.21824 832 ft 23 kts 124°
2026-05-06 04:43 44.88134 -93.21627 830 ft 24 kts 121°
2026-05-06 04:44 44.88047 -93.21425 827 ft 26 kts 121°
2026-05-06 04:44 44.87945 -93.21191 829 ft 27 kts 117°
2026-05-06 04:44 44.87876 -93.21031 830 ft 17 kts 120°
2026-05-06 04:44 44.87818 -93.20896 830 ft 17 kts 121°
2026-05-06 04:45 44.87754 -93.20748 828 ft 18 kts 121°
2026-05-06 04:45 44.87686 -93.20590 826 ft 20 kts 123°
2026-05-06 04:45 44.87607 -93.20410 824 ft 22 kts 121°
2026-05-06 04:45 44.87533 -93.20237 823 ft 21 kts 123°
2026-05-06 04:46 44.87490 -93.20207 822 ft 0 kts 199°
2026-05-06 04:46 44.87489 -93.20207 822 ft 2 kts 200°
2026-05-06 04:46 44.87431 -93.20256 821 ft 8 kts 208°
2026-05-06 04:47 44.87431 -93.20306 820 ft 1 kts 303°
2026-05-06 04:47 44.87556 -93.20594 821 ft 68 kts 300°
2026-05-06 04:47 44.87896 -93.21376 870 ft 116 kts 303°
2026-05-06 04:47 44.88355 -93.22471 1071 ft 135 kts 302°
2026-05-06 04:48 44.88820 -93.23665 1407 ft 139 kts 297°
2026-05-06 04:48 44.88599 -93.24975 1667 ft 164 kts 224°
2026-05-06 04:48 44.87461 -93.25095 1874 ft 179 kts 149°
2026-05-06 04:48 44.86997 -93.24479 1853 ft 185 kts 126°
2026-05-06 04:49 44.86233 -93.22936 1839 ft 190 kts 122°
2026-05-06 04:49 44.85548 -93.21460 1953 ft 172 kts 116°
2026-05-06 04:49 44.84989 -93.20025 2038 ft 158 kts 112°
2026-05-06 04:49 44.84804 -93.18727 2269 ft 128 kts 54°
2026-05-06 04:50 44.85550 -93.18398 2178 ft 123 kts 348°
2026-05-06 04:50 44.86389 -93.18780 1914 ft 128 kts 327°
2026-05-06 04:50 44.87037 -93.19626 1226 ft 126 kts 316°
2026-05-06 04:50 44.87489 -93.20503 854 ft 93 kts 304°
2026-05-06 04:51 44.87763 -93.21123 836 ft 67 kts 302°
2026-05-06 04:51 44.88067 -93.21885 948 ft 107 kts 301°
2026-05-06 04:51 44.88483 -93.22854 1268 ft 122 kts 302°
2026-05-06 04:51 44.88897 -93.23900 1738 ft 120 kts 302°
2026-05-06 04:52 44.89268 -93.24970 2118 ft 126 kts 297°
2026-05-06 04:52 44.89129 -93.26163 2587 ft 141 kts 232°
2026-05-06 04:52 44.88194 -93.26102 2835 ft 162 kts 123°
2026-05-06 04:52 44.87613 -93.24692 2950 ft 172 kts 116°
2026-05-06 04:53 44.86971 -93.23232 3087 ft 179 kts 125°
2026-05-06 04:53 44.86282 -93.21756 3215 ft 183 kts 121°
2026-05-06 04:53 44.85558 -93.20258 3062 ft 177 kts 120°
2026-05-06 04:53 44.84939 -93.18871 2942 ft 158 kts 116°
2026-05-06 04:54 44.84552 -93.17604 2956 ft 127 kts 81°
2026-05-06 04:54 44.85080 -93.16968 2615 ft 112 kts 345°
2026-05-06 04:54 44.85715 -93.17560 2299 ft 104 kts 322°
2026-05-06 04:54 44.86184 -93.18257 2035 ft 96 kts 310°
2026-05-06 04:55 44.86606 -93.18961 1659 ft 95 kts 316°
2026-05-06 04:55 44.87084 -93.19651 1251 ft 103 kts 310°
2026-05-06 04:55 44.87452 -93.20394 904 ft 105 kts 302°
2026-05-06 04:55 44.87804 -93.21190 828 ft 86 kts 304°
2026-05-06 04:56 44.88171 -93.22023 854 ft 120 kts 303°
2026-05-06 04:56 44.88616 -93.23091 1210 ft 128 kts 303°
2026-05-06 04:56 44.89027 -93.24152 1832 ft 119 kts 302°
2026-05-06 04:56 44.89387 -93.25178 2415 ft 113 kts 297°
2026-05-06 04:57 44.89050 -93.26170 2806 ft 151 kts 201°
2026-05-06 04:57 44.88171 -93.25409 2936 ft 170 kts 117°
2026-05-06 04:57 44.87698 -93.23845 2902 ft 175 kts 110°
2026-05-06 04:57 44.87104 -93.22537 2905 ft 175 kts 124°
2026-05-06 04:58 44.86392 -93.21162 2911 ft 172 kts 121°
2026-05-06 04:58 44.85724 -93.19771 2936 ft 168 kts 120°
2026-05-06 04:58 44.85541 -93.18452 2855 ft 131 kts 56°
2026-05-06 04:58 44.86194 -93.18101 2589 ft 92 kts 335°
2026-05-06 04:59 44.86628 -93.18764 1972 ft 92 kts 313°
2026-05-06 04:59 44.86995 -93.19467 1431 ft 87 kts 310°
2026-05-06 04:59 44.87345 -93.20157 1009 ft 82 kts 304°
2026-05-06 04:59 44.87527 -93.20580 878 ft 72 kts 304°
2026-05-06 05:00 44.87768 -93.21092 830 ft 53 kts 305°
2026-05-06 05:00 44.87920 -93.21423 827 ft 26 kts 300°
2026-05-06 05:00 44.87994 -93.21598 825 ft 16 kts 306°
2026-05-06 05:00 44.88059 -93.21651 828 ft 10 kts 10°
2026-05-06 05:01 44.88087 -93.21638 829 ft 6 kts 24°
2026-05-06 05:01 44.88106 -93.21626 829 ft 5 kts 13°
2026-05-06 05:01 44.88156 -93.21677 830 ft 14 kts 301°
2026-05-06 05:01 44.88217 -93.21821 832 ft 18 kts 302°
2026-05-06 05:02 44.88275 -93.21936 833 ft 12 kts 330°
2026-05-06 05:02 44.88340 -93.21903 835 ft 10 kts 41°
2026-05-06 05:02 44.88407 -93.21809 835 ft 18 kts 44°
2026-05-06 05:02 44.88506 -93.21669 837 ft 20 kts 42°
2026-05-06 05:03 44.88598 -93.21539 838 ft 18 kts 45°
2026-05-06 05:03 44.88669 -93.21441 834 ft 20 kts 44°
2026-05-06 05:03 44.88736 -93.21329 837 ft 18 kts 75°
2026-05-06 05:03 44.88691 -93.21164 831 ft 21 kts 121°
2026-05-06 05:04 44.88620 -93.21010 830 ft 1 kts 112°